Hourly Weather Dzialek

Today, 10 May, Monday

Time Temperature Precipitation Wind Pressure Humidity
00:00 +12°C° 0 mm 4 mps 744 mmHg 93%
01:00 +11°C° 0 mm 4 mps 744 mmHg 93%
02:00 +11°C° 0 mm 4 mps 744 mmHg 92%
03:00 +10°C° 0 mm 4 mps 744 mmHg 92%
04:00 +10°C° 0 mm 4 mps 744 mmHg 91%
05:00 +11°C° 0 mm 4 mps 744 mmHg 82%
06:00 +12°C° 0 mm 5 mps 744 mmHg 74%
07:00 +14°C° 0 mm 5 mps 744 mmHg 65%
08:00 +15°C° 0 mm 5 mps 744 mmHg 59%
09:00 +17°C° 0 mm 6 mps 744 mmHg 54%
10:00 +20°C° 0 mm 6 mps 744 mmHg 48%
11:00 +21°C° 0 mm 6 mps 744 mmHg 47%
12:00 +21°C° 0 mm 6 mps 744 mmHg 46%
13:00 +22°C° 0 mm 6 mps 744 mmHg 45%
14:00 +22°C° 0 mm 6 mps 744 mmHg 48%
15:00 +22°C° 0 mm 6 mps 744 mmHg 51%
16:00 +22°C° 0 mm 6 mps 744 mmHg 54%
17:00 +21°C° 0 mm 5 mps 744 mmHg 60%
18:00 +20°C° 0 mm 4 mps 744 mmHg 66%
19:00 +19°C° 0 mm 3 mps 744 mmHg 72%
20:00 +17°C° 0 mm 3 mps 744 mmHg 79%
21:00 +16°C° 0 mm 3 mps 744 mmHg 85%
22:00 +14°C° 0 mm 3 mps 744 mmHg 92%
23:00 +13°C° 0 mm 3 mps 744 mmHg 93%

Tomorrow, 11 May, Tuesday

Time Temperature Precipitation Wind Pressure Humidity
00:00 +13°C° 0 mm 3 mps 744 mmHg 94%
01:00 +12°C° 0 mm 3 mps 744 mmHg 96%
02:00 +12°C° 0 mm 3 mps 744 mmHg 95%
03:00 +12°C° 0 mm 3 mps 744 mmHg 95%
04:00 +12°C° 0 mm 3 mps 743 mmHg 95%
05:00 +13°C° 0 mm 4 mps 743 mmHg 87%
06:00 +15°C° 0 mm 4 mps 743 mmHg 80%
07:00 +16°C° 0 mm 5 mps 743 mmHg 72%
08:00 +19°C° 0 mm 5 mps 743 mmHg 66%
09:00 +21°C° 0 mm 6 mps 743 mmHg 60%
10:00 +23°C° 0 mm 6 mps 743 mmHg 54%
11:00 +23°C° 0 mm 6 mps 742 mmHg 51%
12:00 +24°C° 0 mm 7 mps 742 mmHg 49%
13:00 +26°C° 0 mm 7 mps 742 mmHg 47%
14:00 +26°C° 0 mm 7 mps 742 mmHg 50%
15:00 +26°C° 0 mm 7 mps 742 mmHg 52%
16:00 +26°C° 0 mm 6 mps 741 mmHg 55%
17:00 +24°C° 0 mm 6 mps 741 mmHg 60%
18:00 +22°C° 0 mm 6 mps 741 mmHg 65%
19:00 +21°C° 0 mm 6 mps 741 mmHg 70%
20:00 +20°C° 0 mm 6 mps 741 mmHg 71%
21:00 +19°C° 0 mm 6 mps 742 mmHg 73%
22:00 +17°C° 0 mm 6 mps 742 mmHg 74%
23:00 +16°C° 0 mm 6 mps 742 mmHg 75%

Day after tomorrow, 12 May, Wednesday

Time Temperature Precipitation Wind Pressure Humidity
00:00 +15°C° 0 mm 6 mps 742 mmHg 76%
01:00 +14°C° 0 mm 6 mps 742 mmHg 77%
02:00 +14°C° 0 mm 5 mps 742 mmHg 77%
03:00 +13°C° 0 mm 5 mps 741 mmHg 76%
04:00 +12°C° 0 mm 5 mps 741 mmHg 76%
05:00 +13°C° 0 mm 5 mps 741 mmHg 71%
06:00 +14°C° 0 mm 6 mps 741 mmHg 66%
07:00 +15°C° 0 mm 6 mps 741 mmHg 61%
08:00 +16°C° 0 mm 7 mps 741 mmHg 57%
09:00 +18°C° 0 mm 7 mps 741 mmHg 54%
10:00 +21°C° 0 mm 7 mps 741 mmHg 50%
11:00 +22°C° 0 mm 8 mps 741 mmHg 49%
12:00 +23°C° 0 mm 8 mps 741 mmHg 48%
13:00 +23°C° 0 mm 8 mps 741 mmHg 47%
14:00 +23°C° 0 mm 7 mps 741 mmHg 49%
15:00 +23°C° 0 mm 7 mps 741 mmHg 51%
16:00 +23°C° 0 mm 7 mps 741 mmHg 54%
17:00 +21°C° 0 mm 6 mps 741 mmHg 56%
18:00 +19°C° 0 mm 6 mps 741 mmHg 58%
19:00 +16°C° 0 mm 6 mps 741 mmHg 60%
20:00 +15°C° 0 mm 5 mps 741 mmHg 65%
21:00 +14°C° 0 mm 5 mps 741 mmHg 69%
22:00 +12°C° 0 mm 5 mps 741 mmHg 73%
23:00 +12°C° 0 mm 4 mps 741 mmHg 75%

13 May, Thursday

Time Temperature Precipitation Wind Pressure Humidity
00:00 +11°C° 0 mm 4 mps 741 mmHg 76%
01:00 +10°C° 0 mm 4 mps 741 mmHg 78%
02:00 +9°C° 0 mm 3 mps 740 mmHg 80%
03:00 +9°C° 0 mm 3 mps 740 mmHg 81%
04:00 +8°C° 0 mm 3 mps 740 mmHg 83%
05:00 +9°C° 0 mm 3 mps 740 mmHg 77%
06:00 +10°C° 0 mm 3 mps 739 mmHg 70%
07:00 +12°C° 0 mm 4 mps 739 mmHg 63%
08:00 +13°C° 0 mm 4 mps 739 mmHg 59%
09:00 +14°C° 0 mm 4 mps 739 mmHg 55%
10:00 +15°C° 0 mm 4 mps 738 mmHg 52%
11:00 +16°C° 0 mm 3 mps 738 mmHg 51%
12:00 +17°C° 0 mm 3 mps 738 mmHg 51%
13:00 +18°C° 0 mm 3 mps 737 mmHg 50%
14:00 +18°C° 0 mm 2 mps 737 mmHg 52%
15:00 +18°C° 0 mm 2 mps 737 mmHg 53%
16:00 +18°C° 0 mm 2 mps 737 mmHg 55%
17:00 +17°C° 0 mm 2 mps 737 mmHg 62%
18:00 +16°C° 0 mm 2 mps 737 mmHg 68%
19:00 +14°C° 0 mm 2 mps 737 mmHg 75%
20:00 +13°C° 0 mm 2 mps 737 mmHg 81%
21:00 +12°C° 0 mm 1 mps 737 mmHg 87%
22:00 +11°C° 0 mm 1 mps 737 mmHg 92%
23:00 +11°C° 0 mm 1 mps 737 mmHg 93%

14 May, Friday

Time Temperature Precipitation Wind Pressure Humidity
00:00 +11°C° 0 mm 1 mps 737 mmHg 93%
01:00 +10°C° 0 mm 1 mps 737 mmHg 93%
02:00 +10°C° 0 mm 1 mps 737 mmHg 93%
03:00 +10°C° 0 mm 1 mps 737 mmHg 93%
04:00 +10°C° 0 mm 1 mps 737 mmHg 93%
05:00 +11°C° 0 mm 1 mps 737 mmHg 88%
06:00 +12°C° 0 mm 1 mps 737 mmHg 83%
07:00 +13°C° 0 mm 2 mps 737 mmHg 77%
08:00 +14°C° 0 mm 2 mps 737 mmHg 71%
09:00 +15°C° 0 mm 2 mps 738 mmHg 64%
10:00 +16°C° 0 mm 2 mps 738 mmHg 58%
11:00 +17°C° 0 mm 2 mps 738 mmHg 54%
12:00 +17°C° 0 mm 3 mps 738 mmHg 50%
13:00 +18°C° 0 mm 3 mps 738 mmHg 46%
14:00 +18°C° 0 mm 3 mps 739 mmHg 48%
15:00 +17°C° 0 mm 4 mps 739 mmHg 50%
16:00 +15°C° 0 mm 4 mps 739 mmHg 52%
17:00 +14°C° 0 mm 3 mps 739 mmHg 59%
18:00 +13°C° 0 mm 3 mps 740 mmHg 65%
19:00 +12°C° 0 mm 2 mps 740 mmHg 71%
20:00 +12°C° 0 mm 2 mps 740 mmHg 76%
21:00 +10°C° 0 mm 2 mps 741 mmHg 80%
22:00 +11°C° 0 mm 1 mps 741 mmHg 85%
23:00 +11°C° 0.1 mm 1 mps 741 mmHg 87%

15 May, Saturday

Time Temperature Precipitation Wind Pressure Humidity
00:00 +10°C° 0.1 mm 2 mps 741 mmHg 90%
01:00 +10°C° 0.1 mm 2 mps 741 mmHg 92%
02:00 +10°C° 0.2 mm 2 mps 741 mmHg 93%
03:00 +10°C° 0.2 mm 2 mps 741 mmHg 93%
04:00 +10°C° 0.2 mm 2 mps 742 mmHg 94%
05:00 +10°C° 0 mm 3 mps 742 mmHg 91%
06:00 +11°C° 0 mm 3 mps 742 mmHg 88%
07:00 +11°C° 0 mm 3 mps 742 mmHg 85%
08:00 +12°C° 0 mm 3 mps 743 mmHg 81%
09:00 +12°C° 0 mm 4 mps 743 mmHg 77%
10:00 +13°C° 0 mm 4 mps 743 mmHg 73%
11:00 +13°C° 0.1 mm 4 mps 743 mmHg 71%
12:00 +13°C° 0.1 mm 3 mps 743 mmHg 70%
13:00 +13°C° 0.1 mm 3 mps 744 mmHg 68%
14:00 +13°C° 0.1 mm 3 mps 744 mmHg 70%
15:00 +13°C° 0.1 mm 3 mps 744 mmHg 71%
16:00 +14°C° 0.1 mm 2 mps 744 mmHg 72%
17:00 +14°C° 0 mm 2 mps 744 mmHg 76%
18:00 +13°C° 0 mm 2 mps 744 mmHg 80%
19:00 +12°C° 0 mm 1 mps 744 mmHg 84%
20:00 +11°C° 0 mm 1 mps 744 mmHg 88%
21:00 +10°C° 0 mm 1 mps 744 mmHg 91%
22:00 +9°C° 0 mm 1 mps 745 mmHg 95%
23:00 +10°C° 0 mm 1 mps 745 mmHg 93%
Show more